Погода в Ялтушкове

Украина / Винницкая область     48°59′32″N   27°30′01″E
темп.,
°C
ветер,
м/с
пор.,
м/с
влажн.,
%
обл.,
%
осадки,
мм/ч
давл.,
гПа
погр.,
м
28 февраля, вс
вс2823:00+2ссз6119267 0.3 1026817
02:00+1сз6109782 0.6 1026640
05:00+1ссз61197100 0.3 1027775
08:000сз81291100 0.5 1028790
11:00+1сз7107799 0.1 1028967
14:00+4сз7106492 0.1 1027981
17:00+4сз6116398 0.0 10251055
20:00+2зсз6128699 0.3 1024917
1 марта, пн
пн123:00+2сз71296100 1.3 1024699
02:00+2ссз61196100 2.6 1024642
05:00+2с6997100 0.4 1026628
08:00+1ссв5997100 0.6 1028524
11:00+2с5791100 0.1 1031580
14:00+2с4590100 0.4 1032512
17:00+3с367796 0.1 1032636
20:00+2сз378498 0.1 1034321
2 марта, вт
вт223:00+2зсз358091 0.0 1034177
02:000з348481 0.0 103481
05:000з499011 0.0 1032255
08:00+1зсз5118749 0.0 1031392
11:00+6зсз6107447 0.0 1029595
14:00+9зсз8125923 0.0 1026949
17:00+8зсз714590 0.0 1024945
20:00+5сз818740 0.0 1025738
3 марта, ср
ср323:00+4ссз715840 0.0 1027654
02:00+3ссз7118526 0.0 1029702
05:00+2ссз5981100 0.0 1029663
08:00+1ссз588781 0.0 1030482
11:00+4сз476794 0.0 1030577
14:00+7сз454974 0.0 1029858
17:00+6зсз23550 0.0 1027249
20:00+3з23750 0.0 102722
4 марта, чт
чт423:00+2юз23800 0.0 102622
02:00+1юз34850 0.0 102456
05:00+1юз35900 0.0 102284
08:00+2юз36880 0.0 1020198
11:00+7зюз35660 0.0 1017396
14:00+10з465020 0.0 10151079
17:00+9з475636 0.0 1013292
20:00+5зюз467032 0.0 1013118